timestamp,wind_dir_avg,wind_spd_max_dir,wind_spd_avg,wind_spd_gust,battery_voltage,lat,long
2018-10-28 00:00:00+00:00,355.0,0.0,2.68,3.61,,47.59359,-54.27349
2018-10-28 00:10:00+00:00,323.0,317.0,2.28,2.96,,47.59359,-54.27349
2018-10-28 00:20:00+00:00,324.0,340.0,1.87,2.76,,47.59359,-54.27349
2018-10-28 00:30:00+00:00,340.0,345.0,3.12,3.89,,47.59359,-54.27349
2018-10-28 00:40:00+00:00,340.0,342.0,1.52,2.12,,47.59359,-54.27349
2018-10-28 00:50:00+00:00,307.0,305.0,2.04,2.7,,47.59359,-54.27349
2018-10-28 01:00:00+00:00,321.0,328.0,2.74,3.68,,47.59359,-54.27349
2018-10-28 01:10:00+00:00,334.0,330.0,2.56,2.97,,47.59359,-54.27349
2018-10-28 01:20:00+00:00,319.0,330.0,2.29,3.3,,47.59359,-54.27349
2018-10-28 01:30:00+00:00,315.0,319.0,3.17,3.91,,47.59359,-54.27349
2018-10-28 01:40:00+00:00,345.0,348.0,3.34,3.61,,47.59359,-54.27349
2018-10-28 01:50:00+00:00,319.0,324.0,3.59,4.12,,47.59359,-54.27349
2018-10-28 02:00:00+00:00,319.0,339.0,2.95,3.42,,47.59359,-54.27349
2018-10-28 02:10:00+00:00,333.0,322.0,3.17,3.89,,47.59359,-54.27349
2018-10-28 02:20:00+00:00,312.0,311.0,2.69,3.27,,47.59359,-54.27349
2018-10-28 02:30:00+00:00,342.0,338.0,3.13,3.96,,47.59359,-54.27349
2018-10-28 02:40:00+00:00,337.0,345.0,2.41,2.82,,47.59359,-54.27349
2018-10-28 02:50:00+00:00,323.0,324.0,2.81,3.09,,47.59359,-54.27349
2018-10-28 03:00:00+00:00,5.0,8.0,2.28,3.01,,47.59359,-54.27349
2018-10-28 03:10:00+00:00,340.0,340.0,2.64,2.91,,47.59359,-54.27349
2018-10-28 03:20:00+00:00,352.0,350.0,2.48,2.81,,47.59359,-54.27349
2018-10-28 03:30:00+00:00,345.0,345.0,2.86,3.05,,47.59359,-54.27349
2018-10-28 03:40:00+00:00,4.0,2.0,2.74,3.08,,47.59359,-54.27349
2018-10-28 03:50:00+00:00,26.0,36.0,2.87,3.39,,47.59359,-54.27349
2018-10-28 04:00:00+00:00,354.0,348.0,1.88,2.25,,47.59359,-54.27349
2018-10-28 04:10:00+00:00,28.0,35.0,2.58,3.04,,47.59359,-54.27349
2018-10-28 04:20:00+00:00,13.0,14.0,2.38,2.89,,47.59359,-54.27349
2018-10-28 04:30:00+00:00,30.0,34.0,3.33,3.71,,47.59359,-54.27349
2018-10-28 04:40:00+00:00,25.0,29.0,3.15,3.51,,47.59359,-54.27349
2018-10-28 04:50:00+00:00,19.0,23.0,3.14,3.56,,47.59359,-54.27349
2018-10-28 05:00:00+00:00,15.0,6.0,2.77,3.36,,47.59359,-54.27349
2018-10-28 05:10:00+00:00,21.0,18.0,3.11,3.57,,47.59359,-54.27349
2018-10-28 05:20:00+00:00,19.0,12.0,4.0,4.96,,47.59359,-54.27349
2018-10-28 05:30:00+00:00,39.0,33.0,3.95,4.6,,47.59359,-54.27349
2018-10-28 05:40:00+00:00,28.0,35.0,3.7,4.22,,47.59359,-54.27349
2018-10-28 05:50:00+00:00,43.0,44.0,4.52,5.28,,47.59359,-54.27349
2018-10-28 06:00:00+00:00,41.0,38.0,3.61,4.51,,47.59359,-54.27349
2018-10-28 06:10:00+00:00,69.0,67.0,4.08,4.83,,47.59359,-54.27349
2018-10-28 06:20:00+00:00,48.0,42.0,3.59,4.08,,47.59359,-54.27349
2018-10-28 06:30:00+00:00,56.0,56.0,3.86,4.84,,47.59359,-54.27349
2018-10-28 06:40:00+00:00,66.0,65.0,4.15,4.99,,47.59359,-54.27349
2018-10-28 06:50:00+00:00,56.0,45.0,4.38,5.35,,47.59359,-54.27349
2018-10-28 07:00:00+00:00,61.0,56.0,3.71,4.81,,47.59359,-54.27349
2018-10-28 07:10:00+00:00,60.0,59.0,4.41,5.24,,47.59359,-54.27349
2018-10-28 07:20:00+00:00,59.0,52.0,4.27,5.01,,47.59359,-54.27349
2018-10-28 07:30:00+00:00,56.0,56.0,5.15,6.16,,47.59359,-54.27349
2018-10-28 07:40:00+00:00,63.0,56.0,4.87,5.87,,47.59359,-54.27349
2018-10-28 07:50:00+00:00,55.0,57.0,5.22,6.25,,47.59359,-54.27349
2018-10-28 08:00:00+00:00,63.0,69.0,5.75,6.6,,47.59359,-54.27349
2018-10-28 08:10:00+00:00,63.0,62.0,5.32,5.89,,47.59359,-54.27349
2018-10-28 08:20:00+00:00,59.0,53.0,5.69,6.7,,47.59359,-54.27349
2018-10-28 08:30:00+00:00,67.0,69.0,6.56,7.23,,47.59359,-54.27349
2018-10-28 08:40:00+00:00,62.0,70.0,6.07,7.04,,47.59359,-54.27349
2018-10-28 08:50:00+00:00,64.0,56.0,5.84,6.88,,47.59359,-54.27349
2018-10-28 09:00:00+00:00,69.0,71.0,6.53,7.94,,47.59359,-54.27349
2018-10-28 09:10:00+00:00,68.0,69.0,6.38,7.34,,47.59359,-54.27349
2018-10-28 09:20:00+00:00,64.0,62.0,7.09,8.03,,47.59359,-54.27349
2018-10-28 09:30:00+00:00,72.0,72.0,7.23,8.05,,47.59359,-54.27349
2018-10-28 09:40:00+00:00,73.0,56.0,7.86,9.41,,47.59359,-54.27349
2018-10-28 09:50:00+00:00,83.0,83.0,6.33,7.35,,47.59359,-54.27349
2018-10-28 10:00:00+00:00,84.0,81.0,5.68,6.55,,47.59359,-54.27349
2018-10-28 10:10:00+00:00,84.0,84.0,6.51,8.06,,47.59359,-54.27349
2018-10-28 10:20:00+00:00,85.0,86.0,5.4,6.65,,47.59359,-54.27349
2018-10-28 10:30:00+00:00,102.0,92.0,3.26,4.13,,47.59359,-54.27349
2018-10-28 10:40:00+00:00,87.0,91.0,4.37,6.12,,47.59359,-54.27349
2018-10-28 10:50:00+00:00,86.0,83.0,4.42,6.05,,47.59359,-54.27349
2018-10-28 11:00:00+00:00,97.0,81.0,3.44,6.01,,47.59359,-54.27349
2018-10-28 11:10:00+00:00,92.0,91.0,4.68,6.77,,47.59359,-54.27349
2018-10-28 11:20:00+00:00,101.0,96.0,5.6,8.42,,47.59359,-54.27349
2018-10-28 11:30:00+00:00,93.0,99.0,5.97,10.15,,47.59359,-54.27349
2018-10-28 11:40:00+00:00,85.0,80.0,5.59,7.84,,47.59359,-54.27349
2018-10-28 11:50:00+00:00,97.0,131.0,5.03,7.04,,47.59359,-54.27349
2018-10-28 12:00:00+00:00,126.0,132.0,4.89,7.25,,47.59359,-54.27349
2018-10-28 12:10:00+00:00,133.0,128.0,4.97,5.64,,47.59359,-54.27349
2018-10-28 12:20:00+00:00,115.0,139.0,2.77,4.33,,47.59359,-54.27349
2018-10-28 12:30:00+00:00,125.0,115.0,4.61,6.32,,47.59359,-54.27349
2018-10-28 12:40:00+00:00,132.0,127.0,3.77,4.56,,47.59359,-54.27349
2018-10-28 12:50:00+00:00,109.0,129.0,2.69,4.19,,47.59359,-54.27349
2018-10-28 13:00:00+00:00,134.0,143.0,3.89,5.3,,47.59359,-54.27349
2018-10-28 13:10:00+00:00,122.0,128.0,4.19,6.28,,47.59359,-54.27349
2018-10-28 13:20:00+00:00,123.0,96.0,3.81,4.93,,47.59359,-54.27349
2018-10-28 13:30:00+00:00,102.0,114.0,4.4,6.85,,47.59359,-54.27349
2018-10-28 13:40:00+00:00,115.0,130.0,4.28,7.27,,47.59359,-54.27349
2018-10-28 13:50:00+00:00,117.0,115.0,4.23,6.67,,47.59359,-54.27349
2018-10-28 14:00:00+00:00,113.0,107.0,4.3,5.66,,47.59359,-54.27349
2018-10-28 14:10:00+00:00,100.0,127.0,3.32,5.63,,47.59359,-54.27349
2018-10-28 14:20:00+00:00,121.0,138.0,3.67,6.58,,47.59359,-54.27349
2018-10-28 14:30:00+00:00,109.0,113.0,3.81,6.18,,47.59359,-54.27349
2018-10-28 14:40:00+00:00,111.0,116.0,4.91,8.0,,47.59359,-54.27349
2018-10-28 14:50:00+00:00,109.0,105.0,3.89,5.88,,47.59359,-54.27349
2018-10-28 15:00:00+00:00,110.0,123.0,3.51,6.15,,47.59359,-54.27349
2018-10-28 15:10:00+00:00,97.0,88.0,4.24,6.15,,47.59359,-54.27349
2018-10-28 15:20:00+00:00,113.0,138.0,3.54,5.97,,47.59359,-54.27349
2018-10-28 15:30:00+00:00,109.0,118.0,3.75,6.03,,47.59359,-54.27349
2018-10-28 15:40:00+00:00,112.0,127.0,4.04,6.09,,47.59359,-54.27349
2018-10-28 15:50:00+00:00,93.0,108.0,4.33,6.2,,47.59359,-54.27349
2018-10-28 16:00:00+00:00,120.0,134.0,3.98,6.04,,47.59359,-54.27349
2018-10-28 16:10:00+00:00,101.0,115.0,4.0,5.57,,47.59359,-54.27349
2018-10-28 16:20:00+00:00,99.0,88.0,4.09,5.79,,47.59359,-54.27349
2018-10-28 16:30:00+00:00,96.0,91.0,3.53,5.41,,47.59359,-54.27349
2018-10-28 16:40:00+00:00,108.0,118.0,5.21,10.87,,47.59359,-54.27349
2018-10-28 16:50:00+00:00,100.0,99.0,4.33,7.36,,47.59359,-54.27349
2018-10-28 17:00:00+00:00,109.0,124.0,4.35,7.93,,47.59359,-54.27349
2018-10-28 17:10:00+00:00,111.0,143.0,5.88,10.36,,47.59359,-54.27349
2018-10-28 17:20:00+00:00,129.0,142.0,6.84,9.84,,47.59359,-54.27349
2018-10-28 17:30:00+00:00,113.0,116.0,4.38,6.45,,47.59359,-54.27349
2018-10-28 17:40:00+00:00,111.0,88.0,3.86,5.9,,47.59359,-54.27349
2018-10-28 17:50:00+00:00,103.0,103.0,2.82,4.63,,47.59359,-54.27349
2018-10-28 18:00:00+00:00,117.0,137.0,4.28,6.99,,47.59359,-54.27349
2018-10-28 18:10:00+00:00,112.0,100.0,4.06,6.94,,47.59359,-54.27349
2018-10-28 18:20:00+00:00,111.0,146.0,3.18,5.5,,47.59359,-54.27349
2018-10-28 18:30:00+00:00,125.0,141.0,4.0,7.1,,47.59359,-54.27349
2018-10-28 18:40:00+00:00,114.0,129.0,3.78,7.23,,47.59359,-54.27349
2018-10-28 18:50:00+00:00,110.0,110.0,5.13,8.49,,47.59359,-54.27349
2018-10-28 19:00:00+00:00,107.0,112.0,5.28,8.51,,47.59359,-54.27349
2018-10-28 19:10:00+00:00,111.0,97.0,3.65,5.81,,47.59359,-54.27349
2018-10-28 19:20:00+00:00,111.0,108.0,3.74,6.35,,47.59359,-54.27349
2018-10-28 19:30:00+00:00,108.0,124.0,3.99,6.04,,47.59359,-54.27349
2018-10-28 19:40:00+00:00,100.0,95.0,4.03,6.69,,47.59359,-54.27349
2018-10-28 19:50:00+00:00,113.0,133.0,4.36,7.37,,47.59359,-54.27349
2018-10-28 20:00:00+00:00,88.0,74.0,4.13,5.44,,47.59359,-54.27349
2018-10-28 20:10:00+00:00,90.0,78.0,3.34,4.49,,47.59359,-54.27349
2018-10-28 20:20:00+00:00,90.0,79.0,4.19,5.25,,47.59359,-54.27349
2018-10-28 20:30:00+00:00,94.0,106.0,3.98,5.58,,47.59359,-54.27349
2018-10-28 20:40:00+00:00,97.0,120.0,3.68,5.42,,47.59359,-54.27349
2018-10-28 20:50:00+00:00,107.0,86.0,3.55,5.64,,47.59359,-54.27349
2018-10-28 21:00:00+00:00,97.0,118.0,2.77,4.42,,47.59359,-54.27349
2018-10-28 21:10:00+00:00,94.0,86.0,3.26,4.56,,47.59359,-54.27349
2018-10-28 21:20:00+00:00,92.0,82.0,3.44,5.51,,47.59359,-54.27349
2018-10-28 21:30:00+00:00,88.0,89.0,2.9,5.63,,47.59359,-54.27349
2018-10-28 21:40:00+00:00,95.0,106.0,3.23,4.52,,47.59359,-54.27349
2018-10-28 21:50:00+00:00,101.0,91.0,2.35,3.28,,47.59359,-54.27349
2018-10-28 22:00:00+00:00,91.0,95.0,3.27,4.22,,47.59359,-54.27349
2018-10-28 22:10:00+00:00,89.0,71.0,3.33,5.24,,47.59359,-54.27349
2018-10-28 22:20:00+00:00,87.0,103.0,3.48,4.82,,47.59359,-54.27349
2018-10-28 22:30:00+00:00,83.0,78.0,3.8,4.98,,47.59359,-54.27349
2018-10-28 22:40:00+00:00,83.0,85.0,4.34,5.66,,47.59359,-54.27349
2018-10-28 22:50:00+00:00,82.0,72.0,3.82,5.19,,47.59359,-54.27349
2018-10-28 23:00:00+00:00,96.0,128.0,2.74,5.38,,47.59359,-54.27349
2018-10-28 23:10:00+00:00,122.0,137.0,3.78,5.65,,47.59359,-54.27349
2018-10-28 23:20:00+00:00,103.0,138.0,1.77,3.15,,47.59359,-54.27349
2018-10-28 23:30:00+00:00,119.0,116.0,3.18,5.41,,47.59359,-54.27349
2018-10-28 23:40:00+00:00,79.0,94.0,1.18,2.46,,47.59359,-54.27349
2018-10-28 23:50:00+00:00,103.0,139.0,2.26,4.33,,47.59359,-54.27349
